Wind_Speed
41 42 42 43 44 44 44 44 45 45 45 45 46 47 48 48 48 49 50 51 52 53 55 57 59 61 63 65 66 68 70 72 73 74 74 75 75 76
42 42 43 44 44 45 45 45 46 46 46 46 47 48 49 50 51 51 52 53 55 57 59 61 63 65 67 69 71 73 75 76 77 77 78 78 78 78
42 42 43 44 45 45 46 46 47 47 47 48 49 50 51 52 53 54 55 56 58 60 63 65 67 69 72 73 75 76 77 78 79 78 77 76 76 76
42 43 44 45 46 46 47 47 48 48 49 49 50 52 54 55 55 56 58 59 62 64 66 68 70 72 73 75 76 78 78 77 76 74 73 73 73 73
43 44 45 46 46 47 48 48 49 50 51 52 53 54 56 57 57 59 61 63 65 66 68 70 72 73 75 76 76 76 75 73 71 69 68 68 68 67
44 45 46 46 47 48 49 50 51 52 53 54 55 57 58 59 60 61 62 64 66 68 69 71 73 74 75 74 73 72 70 67 65 63 62 61 59 57
45 46 46 47 48 49 50 51 52 54 55 57 58 59 60 61 62 63 64 66 67 69 70 71 72 72 72 71 70 68 65 62 60 58 55 53 51 49
46 46 47 48 49 50 52 53 54 56 58 59 60 61 62 63 64 65 66 67 68 69 69 68 70 70 71 69 66 63 60 58 55 52 49 47 45 43
46 47 47 49 50 51 52 54 56 58 60 62 62 63 63 64 65 66 67 68 69 69 68 67 69 69 67 65 62 59 56 53 50 46 43 41 38 36
46 47 48 50 51 53 54 56 58 60 62 62 63 63 64 65 66 67 67 67 67 67 68 68 67 64 62 60 57 53 51 48 44 40 37 34 32 31
47 48 50 51 52 54 56 58 60 61 61 62 63 64 64 65 66 66 66 66 65 65 67 66 63 60 57 55 51 49 46 43 38 34 32 30 28 27
48 49 51 52 54 56 58 59 60 61 62 63 63 64 64 65 65 66 66 65 65 64 64 63 60 56 51 48 46 44 41 37 33 30 28 26 25 23
48 50 51 53 55 57 59 60 61 62 62 62 62 63 63 63 64 64 64 64 64 63 62 59 55 52 48 43 40 38 35 32 29 27 25 23 21 20
49 50 53 55 56 58 59 60 61 61 62 62 62 62 62 62 62 62 62 62 62 61 59 55 52 48 42 37 35 32 31 28 26 24 22 20 19 18
50 52 54 56 57 58 59 60 60 61 61 62 62 61 61 61 61 61 60 60 59 58 55 51 47 42 37 34 31 28 26 25 23 20 19 18 17 16
51 53 55 56 57 58 59 59 60 61 61 61 61 61 61 60 59 59 58 57 55 53 51 47 42 37 33 31 28 26 24 22 20 18 17 16 15 14
53 54 55 56 57 58 58 60 60 60 60 60 60 59 59 57 57 57 55 54 51 49 46 42 37 33 30 28 25 23 21 18 17 15 14 14 13 12
54 55 56 56 57 58 59 59 59 58 58 58 58 57 56 55 55 54 52 50 47 45 41 36 32 29 27 26 23 20 18 15 14 13 12 12 11 9
54 55 56 56 57 58 58 58 57 56 56 56 56 55 54 53 52 50 48 46 43 40 36 32 28 26 24 23 20 18 15 13 12 11 11 9 8 7
54 55 56 57 57 57 57 56 55 55 55 55 54 53 52 50 48 46 44 42 39 35 31 28 25 23 22 20 17 15 13 11 10 9 8 7 6 5
54 55 56 57 57 56 55 54 54 53 53 52 51 50 49 47 44 42 40 38 34 30 27 24 22 21 19 17 15 13 11 9 8 7 6 5 5 4
54 55 55 55 55 54 53 52 52 51 50 49 48 47 46 43 41 39 36 33 30 26 24 22 20 18 16 14 12 10 9 8 7 5 4 3 3 3
54 54 54 53 52 51 51 50 50 49 48 47 46 44 42 39 37 34 32 29 26 23 21 19 17 15 14 12 10 8 7 6 5 3 2 1 2 2
Wind_Direction
290 292 293 295 297 298 298 299 300 300 301 301 300 300 300 300 300 299 298 298 297 296 296 295 295 295 294 294 293 292 292 291 290 289 287 285 283 281
290 292 293 295 297 298 299 299 300 300 301 301 300 301 301 301 301 300 299 299 298 297 297 297 297 296 296 295 294 294 293 292 291 289 287 286 284 282
290 292 294 296 298 298 299 300 301 301 301 301 301 301 301 301 301 301 300 300 299 299 299 298 298 298 297 297 296 295 294 293 292 290 288 287 285 283
291 293 295 296 298 299 300 300 301 301 301 302 302 302 302 302 301 301 301 301 300 300 300 300 300 300 299 299 298 297 296 295 293 291 290 287 286 284
291 293 295 296 297 299 300 301 301 301 302 302 302 302 302 302 301 301 302 302 302 302 302 302 302 301 301 300 300 300 299 297 295 294 292 290 288 286
292 294 295 296 298 299 300 301 301 302 302 302 302 303 302 302 302 302 302 303 304 303 303 303 303 303 303 303 302 302 300 299 297 295 294 292 290 288
293 295 295 296 298 300 301 301 301 302 302 303 303 303 303 303 302 303 303 304 304 305 305 305 305 305 305 304 304 303 302 300 299 297 296 293 291 289
293 294 296 297 299 300 301 301 302 302 303 303 303 303 303 303 303 304 304 305 305 305 306 306 306 306 306 305 304 304 303 301 300 299 297 295 293 291
293 295 296 298 299 300 301 302 302 303 304 304 304 304 304 304 304 305 306 307 307 307 307 308 308 308 307 306 305 304 304 303 302 300 298 297 295 292
294 295 297 299 299 300 301 302 303 303 304 304 305 305 305 305 305 306 307 308 308 308 309 310 309 309 308 307 306 305 305 305 303 301 300 298 296 294
294 296 297 299 299 300 301 302 303 303 304 305 305 305 305 306 307 307 308 309 309 310 310 311 310 310 309 307 307 306 306 305 303 301 300 298 297 295
294 296 297 298 299 301 302 303 303 303 304 305 305 305 306 306 307 308 309 310 310 311 311 311 311 310 310 308 307 306 306 305 303 302 301 300 298 296
295 296 297 299 300 301 302 303 303 303 304 305 305 306 306 307 308 308 309 310 311 312 313 312 312 312 311 309 307 306 305 305 304 303 302 302 300 299
296 297 298 300 301 302 302 303 303 304 305 306 306 306 307 307 308 309 309 310 312 313 313 313 313 312 311 309 308 306 306 305 304 303 302 303 302 301
297 298 300 301 302 302 303 303 304 305 305 306 307 307 307 307 308 308 309 310 312 313 313 313 313 313 311 310 309 307 306 306 304 303 303 303 303 303
298 300 301 302 302 303 303 304 305 305 306 307 307 308 308 308 308 309 309 310 312 312 313 313 313 312 311 311 310 308 307 305 304 303 302 303 304 304
299 301 302 302 303 303 304 304 305 305 306 307 308 309 309 309 309 309 310 310 311 312 312 312 312 312 311 311 310 309 308 306 304 303 303 305 306 307
301 302 302 303 304 304 304 305 305 306 307 308 309 310 309 309 309 309 310 310 311 312 312 311 310 310 310 311 311 311 309 306 304 303 306 308 310 312
302 302 303 304 304 305 305 305 306 307 308 309 309 310 310 310 310 309 310 310 311 311 310 309 308 309 309 309 309 309 307 304 302 304 308 312 315 316
302 302 303 304 305 305 306 306 306 307 309 309 310 310 310 310 310 310 310 310 311 310 309 307 307 307 307 306 306 306 304 300 300 304 307 313 319 322
302 302 303 304 305 306 306 306 307 308 309 310 310 310 310 310 309 309 309 310 310 309 307 305 305 305 305 304 304 304 300 298 301 303 305 313 323 330
302 302 304 305 305 306 306 307 308 309 309 310 310 310 310 309 309 309 309 309 309 308 306 304 302 302 302 302 302 300 296 296 301 301 300 307 329 348
302 303 304 305 305 306 307 308 309 309 310 310 310 310 310 309 309 308 308 308 307 306 304 302 299 298 298 299 296 293 290 291 296 292 286 296 345 16
Height
5716 5712 5709 5705 5701 5697 5693 5689 5685 5680 5676 5670 5664 5659 5654 5649 5644 5639 5634 5629 5623 5618 5613 5607 5602 5596 5590 5585 5579 5572 5566 5560 5554 5549 5543 5538 5533 5529
5706 5703 5700 5696 5692 5688 5683 5679 5674 5669 5665 5660 5654 5649 5643 5638 5632 5627 5621 5616 5610 5604 5598 5592 5586 5579 5573 5566 5559 5552 5545 5538 5532 5525 5519 5513 5508 5503
5697 5694 5690 5686 5682 5678 5673 5668 5663 5658 5654 5649 5643 5637 5632 5626 5620 5614 5608 5602 5596 5589 5582 5575 5568 5561 5553 5546 5538 5530 5522 5514 5507 5500 5494 5488 5482 5478
5687 5684 5680 5676 5672 5667 5662 5657 5652 5647 5643 5638 5632 5626 5620 5613 5607 5601 5594 5588 5581 5573 5566 5558 5549 5541 5533 5524 5515 5507 5498 5490 5482 5476 5469 5463 5458 5452
5678 5674 5670 5666 5661 5656 5651 5646 5641 5636 5631 5626 5620 5614 5607 5600 5594 5588 5580 5573 5565 5557 5548 5540 5531 5521 5512 5503 5493 5484 5475 5467 5460 5453 5446 5440 5434 5429
5667 5663 5659 5655 5650 5645 5640 5635 5629 5624 5618 5613 5607 5601 5594 5587 5580 5573 5566 5558 5549 5540 5531 5521 5512 5502 5492 5482 5473 5464 5455 5446 5439 5432 5425 5419 5413 5408
5657 5653 5648 5644 5639 5634 5629 5623 5617 5612 5606 5599 5593 5587 5580 5572 5565 5557 5551 5543 5535 5524 5515 5505 5494 5484 5473 5463 5453 5444 5436 5428 5420 5414 5407 5401 5396 5391
5646 5642 5637 5632 5627 5622 5617 5611 5605 5598 5592 5585 5579 5572 5565 5557 5549 5541 5534 5527 5520 5510 5499 5490 5477 5467 5455 5445 5436 5427 5419 5411 5405 5398 5392 5386 5382 5377
5635 5630 5626 5621 5616 5610 5604 5598 5592 5584 5577 5571 5564 5556 5548 5541 5534 5526 5517 5508 5500 5490 5481 5474 5461 5450 5438 5428 5419 5411 5404 5397 5390 5384 5379 5374 5369 5365
5624 5619 5614 5609 5603 5598 5592 5586 5579 5571 5563 5555 5548 5541 5532 5524 5516 5509 5500 5493 5484 5473 5462 5456 5446 5435 5424 5413 5404 5397 5390 5384 5378 5373 5368 5364 5360 5356
5612 5607 5602 5597 5591 5585 5579 5573 5566 5557 5549 5540 5533 5525 5516 5508 5500 5492 5484 5476 5469 5460 5447 5438 5430 5421 5412 5401 5392 5384 5378 5372 5368 5363 5359 5355 5352 5349
5600 5595 5590 5584 5578 5571 5565 5558 5551 5543 5535 5527 5519 5510 5501 5493 5484 5475 5467 5459 5451 5444 5434 5424 5415 5406 5401 5392 5382 5374 5368 5363 5359 5355 5351 5348 5345 5342
5588 5583 5577 5571 5565 5558 5550 5543 5536 5528 5521 5513 5505 5496 5487 5478 5470 5461 5452 5443 5436 5428 5419 5410 5402 5393 5386 5380 5373 5365 5360 5356 5352 5348 5345 5342 5339 5337
5576 5570 5564 5558 5551 5544 5536 5529 5521 5513 5506 5498 5490 5481 5473 5464 5456 5447 5439 5430 5421 5414 5405 5396 5389 5382 5375 5369 5364 5359 5353 5349 5346 5343 5340 5337 5335 5332
5562 5557 5551 5544 5537 5530 5522 5514 5506 5499 5491 5483 5475 5467 5458 5450 5442 5434 5426 5418 5409 5401 5393 5385 5378 5372 5366 5361 5356 5352 5348 5344 5340 5338 5335 5333 5331 5329
5549 5543 5536 5529 5523 5515 5508 5500 5492 5484 5476 5468 5460 5452 5443 5435 5428 5420 5413 5406 5398 5390 5382 5375 5369 5364 5359 5354 5350 5346 5342 5339 5336 5334 5331 5329 5327 5325
5536 5530 5523 5516 5509 5501 5494 5486 5478 5469 5461 5453 5445 5437 5429 5421 5414 5407 5400 5394 5387 5381 5373 5366 5361 5356 5352 5348 5344 5341 5337 5334 5332 5330 5328 5326 5324 5323
5522 5516 5509 5502 5495 5487 5480 5472 5463 5455 5447 5440 5431 5423 5416 5409 5402 5395 5388 5382 5376 5370 5364 5359 5355 5350 5346 5342 5340 5337 5334 5331 5330 5328 5326 5324 5322 5321
5508 5501 5495 5488 5481 5473 5465 5457 5450 5442 5434 5426 5419 5411 5404 5397 5390 5383 5377 5372 5366 5361 5356 5352 5348 5345 5342 5338 5335 5333 5331 5329 5327 5326 5324 5322 5321 5319
5494 5487 5481 5474 5466 5458 5451 5443 5436 5429 5421 5414 5406 5399 5392 5385 5379 5373 5368 5362 5358 5353 5349 5345 5343 5340 5337 5334 5332 5330 5328 5327 5325 5324 5323 5321 5320 5319
5479 5473 5466 5459 5452 5444 5437 5429 5423 5416 5409 5402 5395 5388 5381 5375 5369 5363 5358 5353 5349 5345 5342 5339 5337 5335 5332 5330 5329 5327 5326 5324 5323 5322 5321 5320 5319 5318
5465 5459 5452 5445 5438 5430 5423 5416 5410 5403 5396 5390 5384 5377 5370 5364 5359 5354 5349 5346 5342 5339 5336 5334 5332 5330 5329 5327 5326 5324 5324 5323 5322 5321 5321 5320 5319 5319
5451 5445 5438 5431 5424 5417 5411 5404 5398 5391 5385 5379 5373 5367 5361 5355 5350 5346 5342 5339 5336 5334 5331 5329 5328 5326 5325 5324 5323 5322 5322 5322 5321 5321 5321 5320 5319 5319